Weather History for KOTH - May, 2013

Change the Weather History Date:

Wednesday, May 15, 2013

  Actual Average Record
Temperature  
Mean Temperature 56 °F 53 °F  
Max Temperature 64 °F 59 °F 82 °F (2006)
Min Temperature 48 °F 47 °F 35 °F (1912)
Degree Days  
Heating Degree Days 9 12  
Month to date heating degree days 121 195  
Since 1 July heating degree days 4101 4381  
Cooling Degree Days 0 0  
Month to date cooling degree days 4 0  
Year to date cooling degree days 4 0  
Growing Degree Days 5 (Base 50)    
Moisture  
Dew Point 49 °F    
Average Humidity 82    
Maximum Humidity 100    
Minimum Humidity 56    
Precipitation  
Precipitation 0.04 in 0.11 in 0.66 in (1994)
Month to date precipitation 0.04 1.72  
Year to date precipitation 12.38 32.50  
Sea Level Pressure  
Sea Level Pressure 30.11 in    
Wind  
Wind Speed 7 mph (South)    
Max Wind Speed 15 mph    
Max Gust Speed 18 mph    
Visibility 10 miles    
Events      
T = Trace of Precipitation, MM = Missing Value Source: NWS Daily Summary

Daily Weather History Graph

Daily Weather History Graph

Search for Another Location

Airport or City:

Trip Planner

Search our weather history database for the weather conditions in past years. The results will help you decide how hot, cold, wet, or windy it might be!

Date:

Astronomy

May. 15, 2013 Rise Set
Actual Time 5:52 AM PDT 8:35 PM PDT
Civil Twilight 5:19 AM PDT 9:08 PM PDT
Nautical Twilight 4:37 AM PDT 9:49 PM PDT
Astronomical Twilight 3:50 AM PDT 10:37 PM PDT
Moon 10:35 AM PDT (5/15) 12:23 AM PDT (5/15)
Length of Visible Light 15h 48m
Length of Day
14h 42m
Waxing Crescent, 28% of the Moon is Illuminated
May 15
Waxing Crescent
May 17
First Quarter
May 24
Full
May 31
Last Quarter
Jun 8
New

Hourly Weather History & Observations

Time (PDT) Temp. Dew Point Humidity Pressure Visibility Wind Dir Wind Speed Gust Speed Precip Events Conditions
12:15 AM 48.2 °F 48.2 °F 100% 30.17 in 10.0 mi SSE 3.5 mph - N/A   Clear
12:35 AM 48.2 °F 46.4 °F 93% 30.17 in 10.0 mi SE 3.5 mph - N/A   Clear
12:55 AM 48.2 °F 46.4 °F 93% 30.17 in 10.0 mi Calm Calm - N/A   Unknown
1:15 AM 48.2 °F 48.2 °F 100% 30.17 in 8.0 mi SE 3.5 mph - N/A   Clear
1:35 AM 48.2 °F 48.2 °F 100% 30.16 in 10.0 mi SE 3.5 mph - N/A   Clear
1:55 AM 48.2 °F 46.4 °F 93% 30.16 in 10.0 mi SE 4.6 mph - N/A   Clear
2:15 AM 48.2 °F 48.2 °F 100% 30.16 in 10.0 mi SE 5.8 mph - N/A   Clear
2:35 AM 48.2 °F 48.2 °F 100% 30.16 in 10.0 mi SSE 3.5 mph - N/A   Clear
2:55 AM 48.2 °F 48.2 °F 100% 30.16 in 10.0 mi ESE 3.5 mph - N/A   Clear
3:15 AM 48.2 °F 48.2 °F 100% 30.15 in 10.0 mi SE 5.8 mph - N/A   Clear
3:35 AM 48.2 °F 48.2 °F 100% 30.14 in 10.0 mi SE 5.8 mph - N/A   Clear
3:55 AM 48.2 °F 48.2 °F 100% 30.14 in 10.0 mi SSE 4.6 mph - N/A   Clear
4:15 AM 48.2 °F 46.4 °F 93% 30.14 in 10.0 mi SSE 5.8 mph - N/A   Clear
4:35 AM 48.2 °F 46.4 °F 93% 30.14 in 10.0 mi SSE 3.5 mph - N/A   Mostly Cloudy
4:55 AM 48.2 °F 46.4 °F 93% 30.13 in 10.0 mi SSE 4.6 mph - N/A   Mostly Cloudy
5:15 AM 48.2 °F 46.4 °F 93% 30.13 in 10.0 mi SSE 5.8 mph - N/A   Partly Cloudy
5:35 AM 48.2 °F 46.4 °F 93% 30.13 in 10.0 mi SE 4.6 mph - N/A   Scattered Clouds
5:55 AM 48.2 °F 46.4 °F 93% 30.13 in 10.0 mi SSE 6.9 mph - N/A   Mostly Cloudy
6:15 AM 48.2 °F 46.4 °F 93% 30.13 in 10.0 mi SSE 5.8 mph - N/A   Overcast
6:35 AM 48.2 °F 48.2 °F 100% 30.13 in 10.0 mi SE 6.9 mph - N/A   Overcast
6:55 AM 48.2 °F 46.4 °F 93% 30.13 in 10.0 mi SSE 6.9 mph - N/A   Overcast
7:15 AM 48.2 °F 46.4 °F 93% 30.14 in 10.0 mi SSE 5.8 mph - N/A   Overcast
7:35 AM 50.0 °F 46.4 °F 87% 30.14 in 10.0 mi SSE 4.6 mph - N/A   Overcast
7:55 AM 50.0 °F 48.2 °F 94% 30.14 in 10.0 mi SSE 4.6 mph - N/A   Overcast
8:15 AM 51.8 °F 48.2 °F 88% 30.14 in 10.0 mi SSE 4.6 mph - N/A   Overcast
8:35 AM 51.8 °F 48.2 °F 88% 30.15 in 10.0 mi SSE 3.5 mph - N/A   Overcast
8:55 AM 51.8 °F 50.0 °F 94% 30.15 in 10.0 mi Calm Calm - N/A   Overcast
9:15 AM 53.6 °F 50.0 °F 88% 30.15 in 10.0 mi SE 4.6 mph - N/A   Overcast
9:35 AM 53.6 °F 50.0 °F 88% 30.15 in 10.0 mi SE 6.9 mph - N/A   Overcast
9:55 AM 53.6 °F 51.8 °F 94% 30.15 in 10.0 mi SE 6.9 mph - 0.01 in   Overcast
10:15 AM 55.4 °F 51.8 °F 88% 30.14 in 10.0 mi ESE 6.9 mph - N/A   Mostly Cloudy
10:35 AM 55.4 °F 51.8 °F 88% 30.14 in 10.0 mi SE 5.8 mph - N/A   Mostly Cloudy
10:55 AM 57.2 °F 51.8 °F 82% 30.14 in 10.0 mi ESE 9.2 mph - N/A   Overcast
11:15 AM 59.0 °F 50.0 °F 72% 30.13 in 10.0 mi SE 8.1 mph - N/A   Overcast
11:35 AM 57.2 °F 48.2 °F 72% 30.13 in 10.0 mi SE 10.4 mph - N/A   Overcast
11:55 AM 60.8 °F 46.4 °F 59% 30.13 in 10.0 mi SSE 9.2 mph - N/A   Overcast
12:15 PM 60.8 °F 46.4 °F 59% 30.13 in 10.0 mi ESE 6.9 mph - N/A   Overcast
12:35 PM 62.6 °F 48.2 °F 59% 30.12 in 10.0 mi SSE 9.2 mph - N/A   Mostly Cloudy
12:55 PM 62.6 °F 48.2 °F 59% 30.12 in 10.0 mi Calm Calm - N/A   Mostly Cloudy
1:15 PM 62.6 °F 48.2 °F 59% 30.11 in 10.0 mi West 6.9 mph - N/A   Overcast
1:35 PM 62.6 °F 48.2 °F 59% 30.11 in 10.0 mi WNW 10.4 mph - N/A   Overcast
1:55 PM 62.6 °F 48.2 °F 59% 30.11 in 10.0 mi West 12.7 mph - N/A   Overcast
2:15 PM 62.6 °F 48.2 °F 59% 30.11 in 10.0 mi West 10.4 mph - N/A   Overcast
2:35 PM 62.6 °F 46.4 °F 55% 30.11 in 10.0 mi WSW 13.8 mph - N/A   Overcast
2:55 PM 62.6 °F 48.2 °F 59% 30.10 in 10.0 mi WSW 11.5 mph - N/A   Overcast
3:15 PM 62.6 °F 46.4 °F 55% 30.10 in 10.0 mi WSW 15.0 mph - N/A   Overcast
3:35 PM 62.6 °F 46.4 °F 55% 30.10 in 10.0 mi WSW 12.7 mph - N/A   Overcast
3:55 PM 62.6 °F 46.4 °F 55% 30.10 in 10.0 mi WSW 15.0 mph - N/A   Overcast
4:15 PM 60.8 °F 44.6 °F 55% 30.10 in 10.0 mi SW 10.4 mph - N/A   Overcast
4:35 PM 60.8 °F 48.2 °F 63% 30.10 in 10.0 mi SW 6.9 mph - N/A   Overcast
4:55 PM 60.8 °F 46.4 °F 59% 30.10 in 10.0 mi SW 8.1 mph - N/A   Overcast
5:15 PM 60.8 °F 46.4 °F 59% 30.09 in 10.0 mi SW 9.2 mph - N/A   Overcast
5:35 PM 60.8 °F 48.2 °F 63% 30.09 in 10.0 mi SW 13.8 mph 19.6 mph N/A   Overcast
5:55 PM 60.8 °F 48.2 °F 63% 30.09 in 10.0 mi SW 11.5 mph 18.4 mph N/A   Overcast
6:15 PM 59.0 °F 50.0 °F 72% 30.09 in 10.0 mi SW 10.4 mph 17.3 mph N/A   Overcast
6:35 PM 59.0 °F 50.0 °F 72% 30.08 in 10.0 mi SSW 8.1 mph - N/A   Overcast
6:55 PM 59.0 °F 50.0 °F 72% 30.08 in 10.0 mi SSW 10.4 mph - N/A   Overcast
7:15 PM 57.2 °F 48.2 °F 72% 30.07 in 10.0 mi SSW 8.1 mph - N/A   Mostly Cloudy
7:35 PM 57.2 °F 50.0 °F 77% 30.08 in 10.0 mi SW 8.1 mph - N/A   Mostly Cloudy
7:55 PM 57.2 °F 51.8 °F 82% 30.07 in 10.0 mi SW 10.4 mph - N/A   Overcast
8:15 PM 57.2 °F 51.8 °F 82% 30.07 in 10.0 mi SSW 6.9 mph - N/A   Mostly Cloudy
8:35 PM 57.2 °F 51.8 °F 82% 30.06 in 10.0 mi SW 9.2 mph - N/A   Mostly Cloudy
8:55 PM 57.2 °F 51.8 °F 82% 30.06 in 10.0 mi South 6.9 mph - N/A   Overcast
9:15 PM 55.4 °F 51.8 °F 88% 30.06 in 10.0 mi South 4.6 mph - N/A   Overcast
9:35 PM 55.4 °F 51.8 °F 88% 30.06 in 10.0 mi South 4.6 mph - N/A   Overcast
9:55 PM 55.4 °F 51.8 °F 88% 30.06 in 10.0 mi SSW 4.6 mph - N/A   Overcast
10:15 PM 55.4 °F 51.8 °F 88% 30.06 in 10.0 mi SSW 3.5 mph - N/A   Overcast
10:35 PM 55.4 °F 51.8 °F 88% 30.06 in 10.0 mi South 3.5 mph - N/A   Overcast
10:55 PM 53.6 °F 53.6 °F 100% 30.06 in 4.0 mi South 3.5 mph - 0.02 in   Overcast
11:15 PM 53.6 °F 53.6 °F 100% 30.05 in 9.0 mi SE 4.6 mph - 0.01 in   Overcast
11:35 PM 53.6 °F 53.6 °F 100% 30.05 in 10.0 mi SSE 3.5 mph - 0.01 in   Overcast
11:55 PM 53.6 °F 53.6 °F 100% 30.04 in 10.0 mi SSE 4.6 mph - 0.01 in   Overcast